CZ-6A DEB

Satellite information

Favourite Embed

Satellite Type and Status

DEBRISIN ORBIT

Key statistics

Satellite CZ-6A DEB at a glance.

Uptime

912

Days in orbit

Revolutions

≈ 14.2

Per day

Orbit

SSO

Sun Synchronous Orbit

Inclination

98.8

Latest

Satellite identification and parameters

Extended collection of information and parameters for CZ-6A DEB.

Object identification

Identified? True

Debris? True

Object name: CZ-6A DEB

International designator: 2022-151VE

Object number (NORAD): 55189

Object ID (CCSDS): 55189

Country: PEOPLES REPUBLIC OF CHINA (PRC)

Current information (Y/N): Y

RCS size: SMALL

Orbital parameters

Period: 101.67 minutes

Inclination: 98.8489 deg

SMA: 7215.881 km

Apoapsis: 874.542 km

Periapsis: 800.95 km

RAAN: 138.4649 deg

Eccentricy: 0.0050993

Argument of periapsis: 41.2482 deg

Mean anomaly: 319.2527 deg

Mean motion: 14.16343891 rev/day

Mean motion (dot): 0.00003719 rev/day2

B* drag term: 0.0018712 1/REarth

Two-line elements (TLE)

Creation date: May 11, 2025, 2:40 a.m.

Reference frame: TEME

Reference center: EARTH

Epoch: May 10, 2025, 11:11 p.m. UTC

TLE line 0: 0 CZ-6A DEB

TLE line 1: 1 55189U 22151VE 25130.96628483 .00003719 00000-0 18712-2 0 9997

TLE line 2: 2 55189 98.8489 138.4649 0050993 41.2482 319.2527 14.16343891125645

Live tracking on map

Real-time ground track for satellite CZ-6A DEB.

In-orbit conjunctions

A list of the most updated potential collisions computed for object CZ-6A DEB.

Target Orbit TCA Probability of collision Miss distance Type
OSCAR 3 LEO 2024-12-27 05:20:39 0.0001528466 121.0 (m) PAYLOAD
METEOR 2-12 DEB LEO 2024-10-10 01:24:42 0.0001595077 744.0 (m) DEBRIS

Associated space launch

Chinese satellite reported for atmospheric/ocean/environmental/spatial parameter research purposes, details TBD.

CZ-6A DEB was lifted into orbit during the mission ‘Long March 6A | Yunhai 3’, on board a Long March 6A space rocket.

The launch took place on Nov. 11, 2022, 10:52 p.m. from Launch Complex 9A.

For more information about the launch, click the button.

Launch to space Long March 6A | Yunhai 3
Long March 6A | Yunhai 3

Agency: N/A

Status: Launch Successful

Launch date: Nov. 11, 2022, 10:52 p.m. UTC

Rocket: Long March 6A

Launch pad: Launch Complex 9A

Location: Taiyuan Satellite Launch Center, People's Republic of China

...

Latest news about this satellite

There are no fresh news available about this satellite. Check back as we update our databases every day.


Newsletter sign-up

Weekly statistics, charts and insights to help you stay on top of the space industry.